www.pogodaiklimat.ru

Погода и климат >> Архив погоды >> Россия >> Камчатский край >> Усть-Камчатск


ПОГОДА в Усть-Камчатске

  • Прогноз погоды в Усть-Камчатске
  • Монитор погоды в Усть-Камчатске

АРХИВ ПОГОДЫ в Усть-Камчатске

Время (UTC), дата Ветер
(напр.,м/с)
 
Видим.   Явления Облачность Т
(С)
Тd
(С)
f
(%)
Тe
(С)
Тes
(С)
Комфортность P
(гПа)
Po
(гПа)
Тmin
(С)
Tmax
(С)
R
(мм)
R24
(мм)
S
(см)
21 14.03 С 7 50 км 4/3 1000 м
[Sc Ac trans]
-17.5 -20.7 76 -28 -28 1005.6 1002.4 -18.1 0.0 160
00 15.03 С 7 50 км 3/0
[Ac trans]
-14.5 -18.6 71 -25 -23 1006.4 1003.3
03 15.03 С 5 50 км 3/0
[Ac trans Ci fib]
-13.0 -19.7 57 -21 -19 1006.8 1003.8
06 15.03 СВ 4 50 км 3/0
[Ac trans Ci fib]
-12.4 -22.2 44 -20 -19 1007.2 1004.2
09 15.03 СВ 3 50 км 3/0
[Ac trans]
-16.1 -26.3 41 -23 -23 1008.3 1005.3 -12.0
12 15.03 С 3 50 км 3/0
[Ac trans]
-25.1 -29.8 65 -34 -34 опасность
обморожения
1009.6 1006.4
15 15.03 штиль 0 50 км 1/0
[Ac trans]
-25.9 -30.1 68 -26 -26 1010.2 1007.0
18 15.03 В 1 50 км 3/0
[Ac trans]
-28.0 -31.5 72 -32 -32 опасность
обморожения
1010.9 1007.6
21 15.03 С 1 50 км 3/1 1000 м
[Sc Ac trans Ci fib]
-28.9 -32.9 68 -33 -32 опасность
обморожения
1012.0 1008.8 -29.6 160
00 16.03 С 1 50 км 3/0
[Ac trans Ci fib]
-18.9 -24.9 59 -22 -16 1012.5 1009.3
03 16.03 штиль 0 50 км 3/0
[Ac trans Ci fib]
-8.8 -21.0 37 -9 -3 1012.1 1009.1
06 16.03 ЮВ 2 50 км 4/0
[Ac trans Ci fib]
-9.9 -21.8 37 -14 -14 1011.9 1008.9
09 16.03 В 1 20 км 5/1 1000 м
[Sc Ac trans Ci fib]
-19.9 -24.9 64 -23 -23 1013.1 1010.0 -7.2
12 16.03 СВ 2 20 км 4/1 1000 м
[Sc Ac trans Ci fib]
-20.8 -24.6 71 -27 -27 1013.6 1010.4
15 16.03 С 1 50 км 3/0
[Ac trans Ci fib]
-20.4 -22.5 83 -23 -23 1013.8 1010.6
18 16.03 В 1 50 км 3/0
[Ac trans Ci fib]
-20.7 -24.6 71 -24 -24 1013.4 1010.2
21 16.03 ЮВ 2 50 км 4/0
[Ci fib]
-18.6 -23.9 63 -24 -23 1013.1 1010.0 -24.9 158
00 17.03 С 1 50 км 8/0
[Ci fib]
-9.4 -17.8 50 -11 -5 1012.6 1009.6
03 17.03 штиль 0 50 км 9/0
[Ci fib]
-6.6 -13.7 57 -7 -1 1010.4 1007.5
06 17.03 Ю 1 50 км 5/0
[Ci fib]
-7.6 -17.1 46 -10 -9 1009.3 1006.3
09 17.03 В 1 50 км 5/0
[Ac trans Ci fib]
-15.9 -19.5 74 -19 -19 1009.0 1006.0 -4.9
12 17.03 В 4 50 км 3/0
[Ac trans]
-18.2 -21.6 75 -27 -27 1008.2 1005.1
15 17.03 СВ 1 50 км 3/0
[Ci fib]
-21.4 -23.6 82 -25 -25 1007.1 1004.0
18 17.03 В 3 50 км 4/0
[Ac trans Ci fib]
-18.9 -21.8 78 -26 -26 1006.0 1002.9
21 17.03 С 2 50 км 4/0
[Ac trans Ci fib]
-21.1 -24.2 76 -27 -26 1005.7 1002.6 -25.7 158
00 18.03 С 1 50 км 5/0
[Ac trans Ci fib]
-13.7 -18.0 70 -16 -10 1004.7 1001.6
03 18.03 З 2 20 км 8/0
[Ac trans Ci fib]
-8.4 -13.3 68 -13 -9 1003.4 1000.5
06 18.03 Ю 2 20 км 9/3 1000 м
[Sc Ac trans]
-8.1 -11.7 75 -12 -12 1003.3 1000.3
09 18.03 ЮВ 2 20 км 6/3 1000 м
[Sc Ac trans]
-13.0 -16.2 77 -18 -18 1004.0 1001.0 -6.4
12 18.03 С 1 20 км 8/4 1000 м
[Sc Ac trans]
-14.3 -17.1 79 -17 -17 1004.6 1001.6
15 18.03 В 1 20 км 8/3 1000 м
[Sc Ac trans]
-16.2 -18.2 85 -19 -19 1004.7 1001.6
18 18.03 В 1 20 км 6/0
[Ac trans]
-17.5 -19.4 85 -20 -20 1004.9 1001.8
21 18.03 С 1 20 км 6/0
[Ac trans Ci fib]
-15.0 -19.8 67 -18 -16 1003.7 1000.6 -18.8 158
00 19.03 С 2 10 км 8/1 1000 м
[Sc Ac trans Ci fib]
-12.0 -14.9 79 -17 -13 1002.5 999.5
03 19.03 С 8
{10}
20 км 6/1 1000 м
[Sc Ac trans Ci fib]
-8.2 -10.9 81 -18 -17 1002.3 999.4
06 19.03 СВ 7
{10}
10 км позёмок 8/3 1000 м
[Sc Ac trans Ci fib]
-9.2 -11.8 81 -18 -18 1004.5 1001.5
09 19.03 СВ 4 20 км {метель} 6/1 1000 м
[Sc Ac trans Ci fib]
-11.7 -15.2 75 -19 -19 1006.6 1003.5 -5.9
12 19.03 СВ 6 20 км {метель} 5/1 1000 м
[Sc Ac trans Ci fib]
-13.7 -17.1 75 -23 -23 1007.1 1004.1
15 19.03 С 6
{11}
20 км {метель} 4/0
[Ac trans Ci fib]
-13.4 -16.9 75 -23 -23 1007.3 1004.3
18 19.03 С 6 20 км позёмок 5/3 1000 м
[Sc Ac trans Ci fib]
-13.7 -16.2 81 -23 -23 1006.9 1003.9
21 19.03 С 8-10
{11}
2000 м ливневой снег {метель} 10/10 200 м
[Cb cap]
-13.7 -15.8 84 -24 -24 1006.5 1003.5 -14.0 0.0
00 20.03 С 9-13
{13}
2000 м ливневой снег {метель} 10/10 100 м
[Cb cap]
-11.5 -13.4 86 -22 -22 1004.4 1001.4
03 20.03 С 10-13
{15}
1000 м ливневой снег {метель} 10/10 100 м
[Cb cap]
-11.3 -12.9 88 -22 -22 1002.1 999.1
06 20.03 С 9-13
{16}
1000 м ливневой снег {метель} 10/10 100 м
[Cb cap]
-10.9 -12.3 89 -21 -21 1000.7 997.7
09 20.03 СВ 10-14
{17}
1000 м ливневой снег {метель} 10/10 100 м
[Cb cap]
-9.8 -11.3 89 -20 -20 998.2 995.2 -9.8 8
12 20.03 С 6
{15}
1000 м ливневой снег {метель} 10/10 100 м
[Cb cap]
-6.8 -7.8 93 -15 -15 996.2 993.3
15 20.03 З 6
{13}
1000 м ливневой снег {метель} 10/10 100 м
[Cb cap]
-10.7 -11.9 91 -19 -19 996.0 993.0
18 20.03 З 6
{10}
1000 м ливневой снег {метель} 10/10 100 м
[Cb cap]
-11.6 -13.0 89 -20 -20 995.7 992.7
21 20.03 С 2 2000 м ливневой снег 10/10 200 м
[Cb cap]
-11.8 -13.4 88 -16 -16 995.4 992.4 -12.8 10 188
00 21.03 СЗ 4 1000 м ливневой снег 10/10 100 м
[Cb cap]
-10.1 -11.4 90 -17 -17 995.3 992.3
03 21.03 З 3 10 км в посл. час ливневой снег 10/10 300 м
[St]
-6.8 -7.9 92 -13 -13 996.1 993.1
06 21.03 З 3 10 км {ливн. осадки} 10/10 300 м
[St]
-8.0 -9.2 91 -14 -14 998.5 995.5
09 21.03 С 1 20 км 8/8 600 м
[Sc]
-10.0 -11.2 91 -12 -12 1001.0 998.0 -6.4 5
12 21.03 С 2 2000 м ливневой снег 10/10 200 м
[Cb cap]
-7.9 -8.9 93 -12 -12 1002.2 999.2
15 21.03 штиль 0 2000 м ливневой снег 10/10 200 м
[Cb cap]
-8.8 -9.9 92 -9 -9 1005.0 1002.0
18 21.03 В 1 2000 м ливневой снег 10/10 200 м
[Cb cap]
-7.9 -8.9 93 -10 -10 1007.6 1004.6

 

Местоположение метеостанции Усть-Камчатск (Камчатский край, Россия): широта 56.22 долгота 162.70 высота над уровнем моря 30 м.

В архиве по умолчанию представлена погода в Усть-Камчатске за последнюю неделю. Архивные данные за месяц целиком и за предыдущие месяцы, начиная с января 2011 года, Вы можете получить, выбрав интересующий диапазон дат из раскрывающегося списка и нажав кнопку "Ввод!".


*Определитесь, кто Вы:
робот инопланетянин человек

Внимание! Время в таблицах - всемирное. Для получения местного времени необходимо прибавить поправку, которая равна 12 ч.

Смотрите также архив погоды в соседних городах и на ближайших метеорологических станциях:

Погода на Мысе Африка (Камчатский край, Россия) (37 км)
Погода в Ключах (Камчатский край, Россия) (118 км)
Погода на Мысе Озерном (Камчатский край, Россия) (162 км)
Погода в Козыревске (Камчатский край, Россия) (181 км)
Погода на Острове Беринга (Камчатский край, Россия) (230 км)
Погода в Эссо (Камчатский край, Россия) (250 км)
Погода в Долиновке (Камчатский край, Россия) (262 км)
Погода в Семячике (Камчатский край, Россия) (294 км)
Погода в Тигиле (Камчатский край, Россия) (301 км)
Погода в Мильково (Камчатский край, Россия) (315 км)

Пояснения к столбцам:

Ветер - указаны скорость ветра в м/с - средняя за 10 мин, порывы в срок и между сроками (в фигурных скобках) и направление, откуда дует ветер: С - северный, СВ - северо-восточный, В - восточный, ЮВ - юго-восточный, Ю - южный, ЮЗ - юго-западный, З - западный, СЗ - северо-западный.
Видимость - горизонтальная дальность видимости в метрах или километрах. При видимости от 1 до 10 км при отсутствии осадков обычно наблюдается дымка, при ухудшении видимости до 1 км и менее - туман. В сухую погоду видимость может ухудшаться дымом, пылью или мглою.
Явления - указаны атмосферные явления, наблюдавшиеся в срок или в последний час перед сроком; фигурными скобками обозначены явления, наблюдавшиеся между сроками (за 1-3 часа до срока); квадратными скобками обозначены град или гололедные отложения с указанием их диаметра в мм.
Облачность - указаны через наклонную черту общая и нижняя облачность в баллах и высота нижней границы облаков в метрах; квадратными скобками обозначены формы облаков: Ci - перистые, Cs - перисто-слоистые, Cc - перисто-кучевые, Ac - высококучевые, As - высокослоистые, Sc - слоисто-кучевые, Ns - слоисто-дождевые, Cu - кучевые, Cb - кучево-дождевые. Подробнее классификацию облаков см. в Атласе облаков (PDF).
T - Температура воздуха - температура, измеренная на высоте 2 м над землей.
Td - Температура точки росы - температура, при понижении до которой содержащийся в воздухе водяной пар достигнет насыщения.
f - Относительная влажность воздуха - влажноcть воздуха, измеренная на высоте 2 м над землей.
Te - Эффективная температура - температура, которую ощущает одетый по сезону человек в тени. Характеристика душности погоды. При расчете учитывается влияние влажности воздуха и скорости ветра на теплоощущения человека.
Tes - Эффективная температура на солнце - температура, которую ощущает человек, с поправкой на солнечный нагрев. Характеристика знойности погоды. Зависит от высоты солнца над горизонтом, облачности и скорости ветра. Ночью, в пасмурную погоду, а также при ветре 12 м/с и более поправка равна нулю.
P - Атмосферное давление - приведенное к уровню моря атмосферное давление.
Po - Атмосферное давление - измеренное на уровне метеостанции атмосферное давление.
Tmin - Минимальная температура - минимум температуры воздуха на высоте 2 м над землей.
Tmax - Максимальная температура - максимум температуры воздуха на высоте 2 м над землей.
R - Количество осадков - Количество выпавших осадков за период времени, мм. При наведении курсора мыши на число - период времени, за который выпало указанное количество осадков.
R24 - Количество осадков - Количество выпавших осадков за 24 часа, мм.
S - Снежный покров - Высота снежного покрова, см. При наведении курсора мыши на число - состояние снежного покрова и степень покрытия местности в баллах.